Location: Tucson
(32.2220°N, 110.9260°W)
Time: 10:20:19
(UTC-07:00)

Envisat - Visible Passes

Search period start: 16 August 2017 00:00
Search period end: 26 August 2017 00:00
Orbit: 764 x 766 km, 98.2° (Epoch: 16 August)

Date Brightness Start Highest point End Pass type
(mag) Time Alt. Az. Time Alt. Az. Time Alt. Az.
16 Aug 2.9 20:18:51 11° SSE 20:23:42 83° ENE 20:28:48 10° N visible
17 Aug 3.7 19:42:38 10° SE 19:47:10 34° ENE 19:51:42 10° N visible
17 Aug 5.1 21:22:21 10° SW 21:26:10 21° W 21:30:00 10° NW visible
18 Aug 3.7 20:44:57 13° S 20:49:19 52° W 20:54:17 10° NNW visible
19 Aug 3.0 20:07:54 11° SSE 20:12:39 64° ENE 20:17:40 10° N visible
19 Aug 5.8 21:50:42 10° WSW 21:52:00 11° W 21:53:17 10° WNW visible
20 Aug 4.1 19:31:59 10° SE 19:36:09 26° ENE 19:40:21 10° NNE visible
20 Aug 4.8 21:11:03 11° SSW 21:15:01 28° W 21:19:20 10° NW visible
21 Aug 3.2 20:34:00 15° S 20:38:13 69° WSW 20:43:17 10° NNW visible
22 Aug 3.3 19:56:57 11° SSE 20:01:35 49° ENE 20:06:28 10° N visible
22 Aug 5.6 21:38:02 10° SW 21:40:48 15° W 21:43:35 10° WNW visible
23 Aug 4.3 19:21:27 10° ESE 19:25:10 21° ENE 19:28:52 10° NNE visible
23 Aug 4.3 21:00:07 14° SSW 21:03:53 36° W 21:08:32 10° NNW visible
24 Aug 2.9 20:23:04 16° SSE 20:27:08 89° W 20:32:14 10° NNW visible
25 Aug 3.6 19:46:02 11° SE 19:50:34 37° ENE 19:55:13 10° N visible
25 Aug 5.3 21:26:14 11° SW 21:29:38 19° W 21:33:13 10° NW visible
